Regional Weather Roundup
Issued by NWS

Home | Current Version | Previous Version | Graphics & Text | Print | Product List | Glossary On
Versions: 1 2 3 4 5 6 7 8 9 10 11 12 13 14 15 16 17 18 19 20 21 22 23 24 25 26 27 28 29 30 31 32 33 34 35 36 37 38 39 40 41 42 43 44 45 46 47 48 49 50
000
ASUS43 KMPX 231001
RWRMN
WEATHER ROUNDUP FOR MINNESOTA
NATIONAL WEATHER SERVICE TWIN CITIES/CHANHASSEN MN
500 AM CDT FRI JUN 23 2017


NOTE: "FAIR" INDICATES FEW OR NO CLOUDS BELOW 12,000 FEET WITH NO
SIGNIFICANT WEATHER AND/OR OBSTRUCTIONS TO VISIBILITY. N/A MEANS
CURRENT SKY AND/OR WEATHER CONDITIONS ARE NOT AVAILABLE.

MNZ060>063-068>070-231100-
   Twin Cities Metro

CITY           SKY/WX    TMP DP  RH WIND       PRES   REMARKS
TWIN CITIES    CLEAR     59  54  83 W5        29.71F
ST PAUL        CLEAR     57  56  96 CALM      29.71F
CRYSTAL        CLEAR     55  49  80 SW3       29.69F
BLAINE         CLEAR     55  54  94 CALM      29.70F
LAKEVILLE      CLEAR     55  55 100 CALM      29.72F
EDEN PRAIRIE   CLEAR     56  53  90 SW3       29.70F
SOUTH ST PAUL  CLEAR     58  55  91 CALM      29.71S
LAKE ELMO      FOG       54  54 100 CALM      29.72S VSB 3/4
$$
MNZ001>005-007-008-013>017-022>024-027-028-231100-
   Northwest Minnesota

CITY           SKY/WX    TMP DP  RH WIND       PRES   REMARKS
BEMIDJI        CLOUDY    54  47  77 W9        29.69R
HALLOCK        PTCLDY    55  54  94 NW13      29.70R
ROSEAU           N/A     54  48  82 W9        29.66R
WARROAD        CLEAR     52  46  82 W7        29.65R
CROOKSTON      CLEAR     57  52  82 NW15      29.72R
FOSSTON        MOCLDY    54  48  82 W9        29.71S
DETROIT LAKES  PTCLDY    55  46  71 W12       29.75S
MOORHEAD       PTCLDY    57  50  77 W9        29.76R
PARK RAPIDS    CLEAR     52  45  77 W8        29.72R
MAHNOMEN       CLOUDY    54  48  81 SW9       29.72S
$$
MNZ006-009>011-018-025>026-231100-
   North Central Minnesota

CITY           SKY/WX    TMP DP  RH WIND       PRES   REMARKS
BAUDETTE       CLEAR     53  50  89 W13       29.62R
FLAG ISLAND    MOCLDY    55  52  88 NW18G24   29.60R
INTL FALLS     PTCLDY    53  46  77 W9        29.59R
WASKISH        PTCLDY    55  52  88 W16G24    29.64S
BIG FORK       MOCLDY    52  46  82 SW7       29.65R
LONGVILLE      CLEAR     54  46  76 W5        29.69S
GRAND RAPIDS   CLEAR     55  45  68 W9        29.68S
CRANE LAKE     CLOUDY    54  45  71 SW3       29.61S
ORR            MOCLDY    54  45  71 W6        29.60R
COOK           CLEAR     50  45  81 SW3       29.63S
WALKER         FAIR      54  46  75 W9        29.69S
$$
MNZ012-019>021-037-231100-
   Northeast Minnesota

CITY           SKY/WX    TMP DP  RH WIND       PRES   REMARKS
DULUTH         PTCLDY    52  47  83 W10       29.64S
ELY            CLEAR     50  43  76 W5        29.61S
HIBBING        PTCLDY    48  43  82 W5        29.64S
EVELETH        CLEAR     53  43  69 W6        29.65R
DULUTH HARBOR  CLEAR     61  52  72 W10       29.64S
TWO HARBORS    CLEAR     55  48  76 W3        29.61S
SILVER BAY     CLEAR     52  48  87 CALM      29.60S
GRAND MARAIS     N/A     45  44  97 W6        29.57S
G MARAIS ARPRT MOCLDY    52  39  62 W5        29.60S
$$
MNZ029>031-032-039>041-046>048-054>057-064-231100-
   West Central Minnesota

CITY           SKY/WX    TMP DP  RH WIND       PRES   REMARKS
FERGUS FALLS   MOCLDY    55  46  71 W7        29.75S
WHEATON        PTCLDY    57  46  67 W9        29.81S
MORRIS         PTCLDY    55  48  76 W9        29.78S
ALEXANDRIA     CLEAR     56  46  69 W13       29.77S
ELBOW LAKE     MOCLDY    55  46  71 NW9       29.78S
WADENA         PTCLDY    54  46  76 W8        29.74R
GLENWOOD       CLEAR     54  46  76 W9        29.78R
APPLETON       CLEAR     55  48  76 W8        29.79S
BENSON         CLEAR     55  46  71 NW10      29.80R
ORTONVILLE     CLEAR     57  48  72 W9        29.81S
MADISON        CLEAR     59  48  67 NW10      29.81S
WILLMAR        FAIR      57  48  72 NW8       29.79S
$$
MNZ033>034-036-042>043-049>051-058-059-231100-
   Central Minnesota

CITY           SKY/WX    TMP DP  RH WIND       PRES   REMARKS
ST CLOUD       CLEAR     57  49  74 NW9       29.72S
SAUK CENTRE    FAIR      55  46  73 W7        29.76R
PAYNESVILLE    CLEAR     54  52  93 W9        29.77R
AITKIN         CLEAR     54  45  71 CALM      29.69R
PINE RIVER     CLEAR     52  45  76 CALM      29.75R
BRAINERD       CLEAR     57  45  64 NW10      29.72R
STAPLES        CLEAR     50  45  81 W5        29.73S
LONG PRAIRIE   FAIR      55  45  67 W8        29.75S
LITTLE FALLS   CLEAR     55  43  62 NW6       29.73S
LITCHFIELD     CLEAR     63  52  67 NW9       29.76R
BUFFALO        CLEAR     60  51  72 W10       29.73S
MAPLE LAKE     CLEAR     60  53  79 NW8       29.74S
HUTCHINSON     CLEAR     60  54  82 W10       29.75F
$$
MNZ037-044-045-052-053-231100-
   East Central Minnesota

CITY           SKY/WX    TMP DP  RH WIND       PRES   REMARKS
PRINCETON      CLEAR     55  48  76 W5        29.72R
MORA           CLEAR     54  46  76 W6        29.71S
CAMBRIDGE      CLEAR     61  48  63 W9        29.69S
RUSH CITY      MOCLDY    57  48  72 W3        29.70R
MOOSE LAKE     CLEAR     54  46  76 W5        29.67R
HINCKLEY       FAIR      50  50 100 W5        29.69S
CLOQUET        CLEAR     55  45  67 W8        29.66S
MCGREGOR       PTCLDY    54  45  71 SW5       29.70R
$$
MNZ071>073-080-081-089-090-097-098-231100-
   Southwest Minnesota

CITY           SKY/WX    TMP DP  RH WIND       PRES   REMARKS
MONTEVIDEO     CLEAR     57  48  72 N13       29.79S
GRANITE FALLS  CLEAR     58  50  73 W12       29.81S
CANBY          CLEAR     57  48  70 CALM      29.84R
MARSHALL       CLEAR     58  48  69 NW14      29.83R
REDWOOD FALLS  CLEAR     59  52  77 NW10      29.78R
OLIVIA         CLEAR     57  46  67 NW10      29.77S
PIPESTONE      CLEAR     57  46  67 NW10G17   29.86R
WINDOM         CLEAR     55  50  82 W8        29.79R
WORTHINGTON    CLEAR     57  50  77 W13       29.83R
JACKSON        CLEAR     55  50  82 CALM      29.80R
TRACY          CLEAR     60  51  72 NW12      29.82R
SLAYTON        CLEAR     57  47  67 W13       29.83R
$$
MNZ065>067-074>077-082>085-091>093-231100-
   South Central Minnesota

CITY           SKY/WX    TMP DP  RH WIND       PRES   REMARKS
MANKATO        CLEAR     59  53  80 W9        29.74F
NEW ULM        CLEAR     55  52  88 W12       29.75S
ST JAMES       CLEAR     55  52  88 W8        29.77S
FAIRMONT       CLEAR     57  52  83 W8        29.77F
GLENCOE        CLEAR     59  56  91 W8        29.73S
FARIBAULT      PTCLDY    57  55  94 SW3       29.73F
OWATONNA       CLEAR     55  54  94 S3        29.74F
WASECA         CLEAR     54  52  94 CALM      29.75F
ALBERT LEA     CLEAR     57  55  94 CALM      29.76S
$$
MNZ078>079-086>088-094>096-231100-
   Southeast Minnesota

CITY           SKY/WX    TMP DP  RH WIND       PRES   REMARKS
ROCHESTER      CLEAR     57  56  96 W8        29.75F
RED WING         N/A     55  54  94 CALM      29.70F FOG
STANTON        CLEAR     57  54  88 SW3       29.71F
DODGE CENTER   CLEAR     55  54  94 SW6       29.75S
WINONA         CLEAR     59  59 100 CALM      29.73R
AUSTIN         CLEAR     57  55  94 CALM      29.75F
PRESTON        CLEAR     57  55  95 NW5       29.76S FOG
$$
ABBREVIATIONS USED IN REMARKS
   TC - TEMPERATURES IN CELSIUS
  WCI - WIND CHILL INDEX
   HX - HEAT INDEX
  VSB - VISIBILITY
$$



USA.gov is the U.S. government's official web portal to all federal, state and local government web resources and services.